Theta_e
367 368 368 367 367 367 367 368 368 368 366 368 366 366 366 367 364 366 367 366 367 367 368 369 369 371 370 370 367 368 370 368 368 369 369 368 366 365 365 366 365 364 363 360 358 357 357 356 355 354 354 351 351 351 349 349 350 347 347 347 344 346 345 342 339 338 344 344 341 341 343 347 345 345 345 345 350 349 349 349 353 349 347 347 349
367 369 369 366 366 367 367 368 368 370 368 367 366 365 367 367 367 367 366 367 368 366 369 368 369 370 370 371 371 368 370 371 367 368 369 368 367 364 362 365 365 364 362 361 359 357 357 356 355 354 355 352 351 350 349 347 348 345 346 345 344 345 347 343 340 339 338 344 341 345 342 344 342 348 345 344 345 350 349 348 347 348 348 348 346
366 369 368 367 367 367 367 367 369 369 366 366 364 364 365 368 369 367 365 366 369 368 368 369 371 371 371 371 372 370 371 371 370 369 369 369 366 364 362 363 363 361 359 358 358 358 356 356 354 354 354 351 350 350 349 349 349 348 345 346 346 345 347 347 344 340 339 341 345 343 342 344 342 344 347 346 350 349 349 349 346 347 348 348 345
365 368 369 367 368 368 368 368 367 367 365 365 364 364 363 366 368 368 366 365 365 369 370 371 372 372 370 370 371 372 370 370 371 369 369 369 368 366 365 364 363 361 359 359 358 358 356 356 354 354 354 352 350 349 349 349 349 350 348 348 348 347 348 347 347 345 342 339 344 343 344 342 343 343 346 347 345 347 347 349 349 347 345 346 346
364 367 367 364 365 367 367 366 367 367 364 363 362 362 361 361 366 367 367 364 363 368 370 371 372 373 369 369 370 371 370 371 371 369 368 369 369 367 365 365 364 363 361 361 360 359 358 356 356 356 355 353 351 349 349 349 349 349 348 348 347 347 346 347 347 346 344 342 342 346 347 345 345 345 345 344 345 347 348 347 346 346 347 345 345
364 366 366 363 365 367 368 366 365 365 363 362 360 360 359 360 362 366 367 365 364 362 369 370 370 372 373 371 371 372 373 372 372 371 368 368 369 368 367 365 363 364 363 361 361 360 358 358 358 358 355 353 352 351 351 349 350 348 349 349 348 348 348 348 349 347 344 344 343 342 346 342 344 346 346 346 344 342 344 346 347 347 347 345 343
367 366 367 364 365 367 366 365 364 364 364 362 361 359 359 358 359 362 366 366 364 362 363 369 370 372 373 372 371 372 373 373 373 372 370 369 369 369 367 366 364 364 363 361 361 360 360 359 360 359 356 355 354 353 352 350 348 349 350 350 349 349 347 347 348 348 346 343 342 343 343 344 344 342 345 347 346 344 342 341 342 345 348 346 345
369 368 367 366 367 366 367 367 366 366 366 369 364 361 360 360 361 362 365 367 365 363 361 365 370 371 372 373 373 374 375 373 373 374 372 369 369 370 369 366 364 364 363 362 361 361 361 361 360 360 358 357 356 356 355 351 350 349 350 351 350 349 347 346 346 346 346 344 341 340 342 344 343 344 346 346 344 343 343 341 339 341 344 350 348
368 365 368 368 368 370 370 369 369 368 367 369 366 363 362 363 364 364 366 366 366 365 364 362 368 370 372 373 373 373 373 373 374 372 372 371 370 369 368 367 365 364 364 363 362 362 362 362 361 360 361 354 348 350 350 349 351 350 352 352 351 349 348 347 346 346 345 343 342 344 342 341 342 343 341 341 341 340 344 343 341 342 342 344 351
367 367 367 368 370 372 372 372 371 371 368 368 371 368 363 364 363 363 365 365 368 369 369 366 364 368 370 372 373 373 373 374 361 346 352 371 371 368 368 368 368 366 365 364 363 362 361 361 362 352 346 342 342 343 344 344 345 349 353 353 352 350 348 347 346 346 345 343 342 342 340 339 340 343 342 343 346 347 344 343 340 341 341 340 347
364 364 366 369 371 373 373 372 372 372 372 371 373 372 369 367 369 370 369 368 370 374 369 366 364 365 369 370 371 372 372 371 344 337 340 346 366 370 368 369 369 368 366 366 364 362 362 362 363 359 349 342 348 340 343 341 341 343 347 348 348 352 349 346 346 347 344 344 343 342 341 341 341 343 342 343 344 345 343 343 341 341 339 336 336
362 365 366 370 372 372 372 373 372 372 372 373 373 373 370 369 370 370 368 367 371 368 368 368 369 366 367 369 370 371 372 352 335 335 337 338 347 371 369 368 368 367 366 364 364 363 362 361 362 362 361 360 359 355 347 341 338 338 340 342 342 342 343 350 349 346 346 344 343 343 342 341 342 344 341 340 343 343 344 343 343 341 341 339 338
362 366 366 369 371 372 372 372 372 372 372 372 373 374 372 371 369 368 367 369 369 370 372 368 369 368 367 369 369 370 372 345 333 332 335 335 336 351 368 369 367 367 366 365 364 365 364 362 361 362 362 344 354 360 359 354 336 334 335 337 338 336 334 334 341 352 349 347 345 344 343 344 342 344 344 344 347 342 343 339 342 344 345 343 341
362 364 367 369 370 372 372 372 372 372 373 373 372 372 372 371 368 368 369 369 369 370 369 370 371 371 369 370 370 370 371 343 330 329 331 331 333 342 367 368 368 367 367 366 365 365 365 363 361 361 363 363 361 359 360 358 353 349 349 350 351 346 335 331 331 333 343 349 348 345 348 349 347 349 351 352 346 343 342 339 343 341 341 342 345
364 366 366 368 370 371 372 371 371 372 373 373 372 371 371 372 370 368 367 368 369 370 369 370 370 371 369 367 367 367 369 337 327 326 327 327 330 335 366 366 367 368 368 368 368 366 366 365 364 362 363 363 361 357 360 359 355 351 350 349 349 349 349 347 345 345 346 347 348 349 350 350 351 351 351 352 348 349 347 347 345 344 346 348 350
362 364 367 367 369 371 371 371 371 372 372 372 371 370 371 372 371 370 368 367 369 370 371 370 369 369 370 369 365 365 366 331 324 325 325 325 327 350 364 365 364 366 367 368 368 368 368 367 366 364 364 364 350 336 347 360 357 352 350 349 349 349 348 342 337 338 342 345 347 349 348 347 339 351 349 346 350 350 348 345 347 349 347 343 339
360 364 366 368 369 371 371 370 370 370 371 370 370 369 369 371 371 371 368 367 366 367 369 369 371 370 370 370 368 367 367 340 320 322 323 322 329 357 363 363 363 363 365 367 367 367 367 368 367 364 364 363 346 330 334 342 358 354 351 349 348 348 347 349 334 329 329 328 329 332 331 330 329 329 329 332 346 347 346 342 342 345 341 337 336
358 362 367 369 370 371 371 370 369 369 370 369 369 369 369 371 371 372 368 365 363 365 368 369 371 370 368 368 368 369 368 345 317 319 320 319 332 358 362 362 362 362 362 365 366 364 364 353 362 366 364 363 336 326 329 342 357 356 353 350 348 347 347 349 347 342 326 326 327 328 328 330 330 329 329 330 331 340 345 338 340 339 336 336 333
359 361 366 369 370 369 369 369 369 369 370 370 369 369 369 370 371 371 369 368 366 367 366 367 369 370 369 368 355 363 368 348 316 318 317 318 332 360 362 362 361 361 361 362 364 363 364 355 346 352 356 353 328 324 325 338 356 357 355 352 349 348 348 349 348 345 343 343 343 344 344 337 347 349 348 330 334 345 345 344 343 338 335 334 334
362 364 367 369 370 369 369 371 370 369 369 370 370 369 371 370 370 369 369 368 367 366 364 365 366 367 369 369 368 368 367 371 339 316 316 316 321 357 364 361 359 360 361 360 360 362 363 363 351 330 332 332 322 320 321 326 353 358 357 352 350 348 350 352 352 349 347 343 343 343 343 345 346 347 350 345 343 346 344 344 344 340 338 337 336
365 367 367 367 368 369 369 369 369 368 369 369 369 368 369 368 367 368 367 367 367 367 366 365 364 366 366 369 369 369 369 367 358 314 315 314 316 331 362 362 362 361 359 358 359 358 360 359 361 335 324 325 318 316 317 320 331 357 357 355 354 352 348 351 352 348 348 345 344 344 343 343 344 343 344 344 342 343 342 343 343 342 340 337 334
366 367 367 367 366 367 367 370 370 368 370 370 370 368 369 369 368 368 366 368 368 367 369 367 365 364 365 365 368 368 364 349 370 317 315 312 315 318 352 361 361 361 358 359 357 357 359 361 362 342 322 323 318 314 314 317 322 349 357 334 332 331 351 354 353 351 348 346 343 342 341 340 339 339 338 342 341 341 342 343 342 341 340 338 337
366 367 367 367 368 368 369 369 368 368 368 369 370 368 369 368 369 370 369 368 367 367 367 366 364 362 363 364 367 368 370 368 339 340 314 313 312 315 324 345 337 361 359 356 357 357 360 362 359 336 319 319 316 313 314 315 319 338 330 325 325 327 342 351 350 350 347 345 344 342 341 340 339 337 337 339 341 342 341 342 343 342 341 340 340
368 367 367 367 366 366 366 367 369 369 369 370 369 370 369 369 369 369 369 367 365 365 365 365 364 362 361 359 362 362 372 368 349 330 326 311 312 312 315 322 331 354 361 359 359 359 360 362 355 327 313 314 314 314 315 315 328 322 322 322 324 327 348 349 349 350 345 342 341 341 341 340 339 339 340 340 338 344 343 343 341 340 340 340 340
367 366 366 366 366 365 365 367 368 368 369 369 368 367 369 370 367 369 369 366 365 363 362 362 362 362 361 360 362 366 365 367 364 344 321 314 312 311 313 317 320 322 351 360 359 359 342 332 328 321 313 313 314 315 315 314 316 319 319 319 326 344 346 347 348 347 343 340 339 339 339 339 340 342 343 342 346 345 342 339 339 339 338 341 340
368 367 367 367 365 366 365 365 367 368 369 369 369 368 368 366 365 366 364 362 361 361 361 360 359 360 360 361 361 362 367 365 368 363 330 320 315 313 314 315 318 320 328 350 339 336 332 328 322 317 313 318 326 330 330 327 317 319 319 321 341 345 346 346 346 343 341 340 339 337 339 339 339 342 345 346 342 339 339 338 337 336 336 336 336
365 366 366 365 367 366 365 363 365 367 368 365 365 365 364 363 363 362 363 361 362 361 361 360 360 358 359 360 360 364 363 363 365 365 365 346 338 331 321 323 315 317 328 340 336 344 342 339 343 326 323 318 324 324 327 326 323 323 328 332 342 345 345 345 344 343 341 340 338 338 341 341 341 340 344 341 340 339 338 338 335 334 335 335 333
363 364 365 365 364 365 364 364 364 363 364 364 362 361 361 362 361 362 360 360 359 360 360 359 358 359 359 359 360 361 361 362 363 360 354 350 352 349 341 336 336 335 337 342 348 351 352 338 336 334 330 326 326 331 333 333 328 327 330 334 341 343 341 337 340 345 343 342 339 339 340 341 338 339 340 338 337 337 337 336 335 334 332 332 329
367 367 365 365 364 365 365 365 364 363 362 365 366 357 363 363 369 365 361 360 365 369 370 369 366 367 366 364 363 362 363 364 356 311 322 312 323 338 351 346 344 344 333 327 345 350 351 353 349 339 332 327 327 330 332 332 329 329 331 335 340 342 341 340 340 340 340 338 336 335 335 337 337 337 337 335 336 336 339 338 338 335 331 331 326
366 365 365 365 364 363 364 362 363 360 359 363 361 350 327 312 333 363 351 324 311 310 320 343 337 341 346 349 350 345 346 342 311 304 303 302 301 304 308 309 313 331 328 322 327 344 347 347 347 342 335 330 330 331 331 332 330 329 330 327 335 339 338 338 338 338 338 336 336 336 336 337 336 335 334 332 334 336 336 332 335 335 330 326 325
360 361 361 361 358 362 361 363 365 366 366 364 365 355 346 343 306 306 319 319 310 302 299 299 303 311 333 340 336 321 317 309 303 301 299 299 298 298 298 299 302 304 307 325 336 337 342 344 345 344 337 334 333 335 334 333 330 329 330 330 333 335 334 336 336 335 335 335 334 335 335 335 335 334 333 331 332 334 335 333 332 331 329 326 324
354 354 354 355 354 358 358 359 360 359 358 359 357 355 347 340 341 317 303 310 304 299 298 297 297 299 303 311 321 334 320 308 302 300 299 298 298 298 297 297 297 297 300 303 323 335 338 341 343 344 340 336 335 336 336 335 330 330 330 329 331 334 334 334 334 336 335 335 335 335 334 335 334 333 332 332 330 331 330 328 328 327 328 326 326
351 351 350 350 348 348 347 349 349 349 348 348 347 347 343 338 335 333 343 305 304 301 299 298 298 300 301 299 301 307 305 302 299 298 298 298 297 297 297 296 295 295 296 306 317 325 334 339 342 343 342 337 336 337 336 334 332 331 331 330 330 332 334 333 331 336 335 337 336 336 335 334 333 331 329 331 329 328 328 326 327 328 327 325 325
349 348 347 348 348 347 348 350 350 349 348 347 347 346 345 345 343 342 341 348 346 330 305 299 303 306 303 305 305 302 299 299 300 299 298 299 298 298 297 302 297 294 298 310 316 320 327 335 338 341 342 340 337 334 332 332 332 331 331 331 332 334 335 335 334 334 334 334 336 334 334 335 331 331 330 331 330 330 329 326 327 327 324 323 323
345 345 346 343 343 343 344 347 347 348 346 345 343 340 341 343 342 339 339 338 339 339 344 345 312 307 330 321 314 308 304 302 302 301 300 300 300 297 297 315 322 325 310 307 312 318 322 327 334 339 341 340 336 333 332 332 332 331 331 331 332 333 334 333 333 334 334 334 334 332 330 330 331 329 328 328 327 328 327 327 325 325 325 324 322
340 340 341 341 341 342 343 346 347 346 345 341 342 340 341 342 342 341 336 339 339 340 340 344 346 318 303 305 304 308 307 306 305 305 304 301 299 298 321 328 327 325 324 325 322 320 321 323 327 333 339 338 335 333 333 332 332 331 332 331 331 332 332 332 331 332 333 334 333 332 328 332 330 328 330 329 327 326 326 326 325 324 324 323 324
342 342 343 344 342 342 340 340 342 344 338 339 341 343 342 340 338 339 338 339 337 339 342 344 343 345 326 339 329 317 311 309 308 306 303 303 300 310 323 326 326 325 325 326 326 326 324 325 328 331 334 333 332 332 332 332 332 332 327 332 333 333 333 333 333 331 333 333 333 332 331 331 331 329 329 327 326 326 326 326 325 323 322 323 320
344 344 347 346 346 344 344 343 342 338 343 340 342 342 340 341 341 339 338 338 337 336 340 339 334 336 337 337 336 334 331 319 316 317 320 321 333 338 336 335 333 332 332 333 330 328 327 328 332 332 331 330 331 331 331 330 331 331 331 332 332 332 326 330 329 333 333 333 332 331 330 330 330 329 327 327 326 325 325 325 323 323 323 322 322
344 333 331 332 335 343 342 341 341 341 340 340 339 339 336 337 338 338 339 338 338 336 336 337 337 335 335 335 335 333 332 336 335 334 335 335 336 337 335 334 335 336 336 335 333 332 333 333 334 335 333 331 329 330 330 330 330 331 331 331 331 330 330 331 332 332 331 331 331 331 331 330 330 330 329 328 325 325 324 324 323 323 322 322 321
342 342 338 333 338 337 338 340 339 338 338 338 337 337 337 337 336 336 337 336 336 335 336 334 336 336 336 335 331 330 332 334 333 334 334 335 334 335 334 333 334 335 337 336 335 334 332 332 333 333 333 332 331 329 329 330 330 331 331 330 330 330 330 331 331 331 330 331 331 332 332 330 328 328 328 327 326 326 325 324 322 323 323 322 319
339 339 339 335 335 338 339 340 337 337 338 337 337 338 336 336 337 336 335 334 334 334 334 335 334 336 333 323 309 306 327 334 334 334 333 334 333 333 333 334 332 334 335 336 336 336 336 333 331 330 330 330 330 330 330 330 330 330 330 329 330 329 330 331 331 331 331 330 331 331 331 329 327 326 325 325 321 323 324 323 323 323 321 319 318
341 340 338 337 337 336 335 335 336 339 339 338 338 335 335 334 335 335 333 333 333 333 333 333 335 336 322 304 314 304 326 335 335 333 334 334 335 334 333 334 335 334 334 335 336 335 334 332 330 329 328 329 329 329 329 330 331 331 330 329 329 329 329 330 331 331 330 329 329 330 329 328 327 326 327 319 325 325 324 323 322 322 321 320 317
337 338 338 339 336 335 335 335 337 336 336 336 335 335 335 334 334 333 335 332 333 333 333 332 334 335 335 320 322 313 334 336 336 333 333 333 333 334 334 333 333 333 333 334 336 337 336 333 330 328 327 328 329 329 331 332 332 332 331 330 329 330 330 329 329 330 330 329 329 328 328 327 326 326 327 325 325 323 323 322 321 321 320 318 316
332 332 334 332 335 336 336 336 334 335 334 335 337 334 334 336 333 334 333 332 332 333 333 334 334 334 335 333 329 332 335 335 334 333 333 332 332 332 334 334 333 333 334 334 334 335 335 332 330 329 329 329 330 330 330 330 329 328 328 328 327 327 329 329 329 329 329 328 327 327 327 325 324 325 324 322 323 322 321 320 319 318 317 316 315
332 332 331 330 331 333 333 335 334 335 333 334 336 336 336 336 335 334 333 332 332 332 332 331 332 332 334 333 334 334 334 335 333 332 332 332 332 332 332 333 333 333 333 334 334 334 333 332 332 331 331 331 332 331 331 332 333 332 331 329 327 327 328 328 328 327 327 326 325 324 323 322 323 322 321 321 320 320 318 317 316 315 314 314 314
331 331 330 331 330 331 331 332 332 333 332 332 332 332 333 333 334 333 332 332 332 332 332 331 332 332 333 332 333 332 333 334 335 333 332 332 332 332 332 333 332 332 334 334 333 331 330 330 332 332 329 330 330 330 329 329 330 329 328 327 327 327 327 327 327 326 325 325 324 322 323 322 321 320 321 319 318 317 317 317 317 315 315 314 314
331 331 330 330 329 329 330 331 330 330 331 329 330 329 329 330 331 329 329 330 330 331 331 332 332 332 333 333 332 332 333 332 334 334 334 334 333 333 332 332 331 331 334 337 332 334 330 330 329 328 327 327 328 327 327 326 327 328 327 327 325 325 325 325 325 326 325 324 323 320 319 319 319 318 319 318 317 316 316 315 315 315 315 313 313
328 327 327 327 327 327 327 327 326 326 325 325 325 324 324 324 324 324 325 326 326 327 327 328 330 330 330 331 332 332 333 332 333 334 334 332 332 332 331 330 330 330 331 331 332 331 330 328 327 327 328 328 325 323 324 324 324 323 324 323 324 324 321 315 325 324 324 324 323 322 320 319 318 317 316 317 316 315 315 315 315 314 314 313 312
325 325 325 325 324 324 323 322 321 320 320 320 320 320 320 320 319 318 319 321 322 323 324 324 325 326 327 328 329 331 332 331 331 332 333 332 332 332 331 329 328 328 327 326 327 327 329 331 329 326 326 327 326 324 323 323 322 323 325 323 316 305 303 308 315 322 313 320 319 320 320 318 317 316 316 316 316 315 314 315 315 313 313 313 311
320 320 321 321 322 321 321 320 319 318 317 317 316 315 315 315 314 313 313 314 315 316 318 321 323 323 323 324 325 328 329 329 330 334 335 336 334 332 331 331 330 327 324 324 326 326 328 327 327 324 324 324 323 323 322 322 322 321 319 314 297 296 297 299 302 305 314 319 319 317 316 315 316 315 315 315 315 314 313 313 313 313 312 312 311
318 318 317 317 318 319 319 319 318 318 317 315 314 312 311 310 310 309 309 309 310 310 311 312 314 316 318 321 323 325 326 328 328 327 330 331 333 333 333 332 331 329 326 324 324 324 324 324 324 324 324 322 321 320 321 321 321 319 305 298 297 298 299 304 314 297 302 308 318 316 315 314 314 313 313 313 312 312 311 312 311 311 311 309 309
Wind_Speed
22 19 19 19 19 19 19 19 19 17 17 17 16 16 14 14 14 13 12 13 12 13 13 13 13 13 14 13 13 13 13 13 12 12 12 12 11 11 10 12 12 11 11 12 12 11 11 11 11 10 9 9 8 8 8 8 8 8 7 7 8 8 7 7 7 7 4 5 4 5 6 7 6 6 5 5 6 5 6 6 6 6 6 7 7
21 20 19 19 21 20 20 19 18 17 18 17 17 16 15 14 14 13 14 13 13 14 14 14 13 14 14 14 13 13 13 13 14 12 13 12 13 10 11 13 13 12 11 12 13 11 11 12 12 11 11 10 10 9 9 9 9 9 9 9 8 8 8 7 7 7 7 5 5 4 4 5 5 7 7 7 7 7 7 6 7 7 6 5 6
22 19 19 19 20 20 19 19 18 19 20 18 19 18 16 16 14 14 14 14 14 14 14 14 13 14 13 13 13 13 13 14 13 13 13 14 14 13 13 14 14 14 14 14 14 13 12 12 13 12 10 11 11 10 10 10 9 10 10 9 9 9 9 8 7 8 8 7 6 6 6 6 7 6 8 7 6 6 7 7 7 6 5 6 6
21 20 19 21 21 20 20 19 21 21 21 18 20 19 17 16 15 15 16 14 14 14 14 14 14 14 14 13 13 13 14 14 14 14 14 14 14 14 14 14 14 15 15 14 14 14 14 13 13 14 13 12 12 11 10 10 10 9 10 9 9 9 8 9 9 7 7 8 6 7 6 7 7 7 7 7 8 7 7 6 7 6 7 7 6
21 21 21 23 22 21 22 21 21 21 21 19 21 20 19 17 15 17 16 16 16 14 14 14 14 14 14 14 14 14 15 15 15 15 14 14 15 15 14 14 14 15 15 14 14 14 14 14 14 14 14 13 12 12 11 12 11 10 10 9 9 9 8 9 9 8 7 7 7 6 6 7 7 8 8 8 8 7 7 7 7 7 7 7 6
21 20 20 21 21 23 22 21 22 22 22 21 21 21 20 19 18 16 17 17 17 16 15 14 14 15 15 15 15 15 14 14 15 15 15 15 14 14 14 15 15 15 15 15 15 15 14 15 14 15 15 15 13 13 12 13 11 11 11 10 10 9 9 9 9 9 9 8 7 7 7 7 7 7 8 8 8 7 7 7 7 7 6 7 7
18 19 20 21 20 21 21 21 20 20 20 20 19 19 20 20 20 18 17 17 17 17 17 16 14 15 15 15 15 15 15 15 14 15 15 15 15 15 15 15 15 14 15 16 16 16 16 15 15 15 16 15 15 14 13 13 12 12 11 11 10 10 10 9 9 10 10 9 8 8 8 8 8 8 8 8 8 7 8 7 8 7 7 7 7
17 18 19 18 18 20 20 20 19 18 18 17 18 18 19 18 18 17 16 17 18 18 18 17 16 15 16 15 15 15 15 15 15 15 15 15 14 15 15 15 15 15 15 16 16 16 16 17 17 16 16 15 15 14 13 13 11 12 11 11 11 11 10 10 10 10 10 10 9 9 9 8 9 8 8 8 8 8 8 8 8 7 7 7 8
17 19 18 17 17 17 16 16 16 17 18 17 17 17 17 17 16 15 15 16 15 17 17 17 17 16 16 16 16 15 15 15 14 15 15 16 15 15 16 15 15 15 15 16 16 16 16 16 17 17 16 16 17 14 14 12 11 11 11 11 12 11 11 10 10 10 10 10 10 9 9 9 9 9 10 9 11 10 8 8 7 7 7 7 7
16 17 18 18 16 15 15 15 15 16 16 17 17 17 17 16 17 16 16 16 14 14 14 15 17 17 17 17 16 15 14 13 15 19 17 14 15 14 14 15 15 15 15 15 16 17 17 16 16 18 17 18 17 17 15 14 14 12 11 12 12 12 11 11 10 10 10 10 10 10 10 10 10 10 10 10 9 8 9 9 9 8 7 7 5
17 18 18 16 15 15 15 15 15 16 16 16 15 16 16 15 14 14 14 15 15 13 14 16 17 16 17 17 17 15 14 13 18 19 20 19 15 15 14 14 15 15 16 15 15 16 16 16 14 14 15 15 17 19 17 15 15 15 14 14 13 13 13 12 11 11 11 11 10 10 10 11 11 10 11 11 10 10 9 8 9 8 8 9 9
18 17 17 15 15 16 15 15 15 15 15 15 15 15 15 15 14 14 15 16 14 14 15 15 15 15 15 17 17 16 15 15 19 21 21 21 18 15 15 14 15 16 16 16 15 14 15 15 14 12 13 14 15 15 17 18 16 17 16 14 15 15 14 12 11 11 12 11 11 11 10 10 10 10 10 11 10 10 9 8 8 8 8 9 8
16 16 16 16 16 16 16 16 16 15 15 15 14 13 14 15 15 15 17 15 14 15 14 15 15 15 15 16 17 17 16 17 20 22 23 23 22 19 14 15 15 16 16 16 15 14 13 13 13 13 11 17 15 15 14 14 15 19 17 16 16 17 16 15 11 10 10 11 11 11 11 9 10 10 10 9 8 9 8 9 8 8 8 7 7
16 17 16 16 16 16 16 16 17 16 15 15 14 14 15 16 16 15 14 14 14 15 16 15 14 15 15 15 15 16 17 15 21 22 23 24 23 19 15 16 16 16 17 16 15 15 15 13 13 13 13 11 14 16 14 14 13 12 13 12 13 15 16 17 17 14 10 10 11 11 10 10 8 8 8 8 9 9 8 8 8 9 9 8 7
14 16 17 17 17 17 17 16 16 15 16 16 16 16 16 15 16 15 14 15 15 14 15 16 15 15 16 16 15 16 16 16 21 22 23 23 23 20 16 16 14 15 15 15 15 15 16 15 15 14 14 14 14 17 15 16 15 14 15 17 17 16 16 17 16 15 13 13 12 12 11 11 10 9 7 7 9 7 6 8 9 8 7 7 4
15 16 17 18 17 16 16 15 14 14 15 15 16 17 16 15 15 14 13 13 13 13 14 15 15 16 16 16 17 17 16 16 21 23 24 23 23 15 16 17 16 14 14 15 15 14 15 15 14 15 14 15 15 21 19 15 16 17 17 17 16 16 16 17 18 17 17 16 14 12 11 12 11 11 10 10 8 7 7 7 6 6 7 7 7
16 16 17 17 16 16 16 15 15 15 16 16 17 17 16 15 14 13 14 14 13 14 14 14 13 15 16 16 17 16 16 14 20 23 23 24 19 13 15 16 15 16 14 15 16 16 15 15 15 14 16 16 18 22 22 19 16 17 16 17 16 15 16 14 17 19 18 17 16 15 14 8 4 6 9 11 9 8 7 8 10 9 8 8 9
17 16 16 16 16 16 16 16 16 16 16 17 17 16 15 13 14 13 14 15 15 15 14 13 14 15 16 18 17 17 16 14 21 22 24 25 22 16 14 15 16 16 16 16 14 16 17 18 17 17 17 17 18 23 24 19 17 17 17 17 17 16 15 14 12 13 19 18 16 14 10 8 8 9 11 13 13 10 10 10 10 9 9 9 8
17 17 15 14 15 15 15 15 16 16 16 16 15 15 15 14 13 13 13 14 14 13 13 13 13 14 16 17 17 18 18 15 20 22 25 25 22 14 15 15 16 16 15 15 15 15 15 15 20 19 18 18 19 23 25 22 18 18 18 17 17 18 16 16 15 14 13 12 13 13 7 7 8 8 8 13 14 13 11 10 9 9 9 9 8
14 13 13 14 14 14 14 15 15 15 15 14 13 13 12 12 14 13 13 12 12 13 13 13 14 13 14 16 14 17 18 13 15 23 24 24 26 16 13 14 17 17 16 15 16 15 16 15 17 24 22 19 16 22 24 26 19 17 16 16 17 19 15 14 13 11 14 15 15 15 14 11 10 10 8 8 10 13 12 12 10 9 8 8 8
13 13 13 14 14 15 14 14 16 15 14 14 13 13 12 13 12 12 13 12 11 12 13 12 13 13 14 14 15 16 15 16 12 23 23 24 25 21 14 15 15 14 16 16 15 17 16 18 15 19 23 20 18 24 25 25 23 16 16 16 16 14 13 13 15 15 12 14 13 12 12 12 13 14 12 10 10 11 11 12 11 10 9 9 9
12 12 13 14 14 14 14 13 14 13 12 12 12 12 11 11 11 12 11 10 11 11 11 10 11 11 12 13 14 14 13 15 10 18 21 22 22 26 15 16 15 14 17 15 17 18 17 13 14 16 24 24 21 20 23 24 27 18 18 18 15 15 15 11 11 11 12 12 13 11 11 12 14 13 14 12 11 11 12 12 12 12 10 10 9
11 12 12 13 13 13 12 13 12 11 11 12 12 11 10 11 11 10 10 10 11 11 11 11 11 12 12 11 11 11 11 10 13 12 20 22 24 25 26 18 18 16 18 17 17 17 15 15 15 15 23 25 23 22 24 27 22 20 22 16 16 18 15 11 12 12 12 13 13 11 10 12 12 14 13 12 12 12 12 12 11 10 8 9 9
10 11 11 11 11 11 12 12 11 10 11 11 11 10 10 10 10 10 10 10 10 10 10 10 10 11 12 12 11 12 8 9 9 15 16 23 22 25 26 26 19 15 16 18 18 16 14 14 14 15 21 24 26 25 24 23 20 26 23 19 17 16 13 12 10 11 11 11 12 11 11 11 12 12 10 10 12 9 10 10 11 11 10 9 9
10 10 10 10 10 10 10 10 11 10 11 11 11 11 11 11 10 9 9 10 10 10 11 10 10 10 12 12 11 8 10 9 11 12 21 22 24 25 26 27 24 19 15 17 16 18 16 17 19 15 19 22 25 23 19 22 25 22 21 16 16 10 12 12 10 12 11 12 11 10 9 10 10 10 9 10 6 7 8 7 10 11 9 8 9
9 10 9 9 10 10 10 10 10 9 9 9 9 9 9 10 10 9 9 10 10 10 9 9 10 10 10 11 11 10 9 8 9 7 11 16 18 23 26 26 28 27 24 19 22 23 22 20 16 11 15 18 16 12 9 13 20 21 21 17 12 12 12 13 12 13 13 11 11 12 10 9 8 8 8 7 8 9 9 8 8 7 7 7 7
8 8 9 9 9 9 10 9 9 9 9 8 8 9 9 9 9 9 9 9 9 9 10 9 9 9 10 9 9 8 9 11 9 10 6 7 8 11 14 16 21 22 18 17 18 15 18 20 15 10 10 18 21 20 20 20 16 14 12 12 12 14 15 15 15 13 12 11 10 10 9 8 6 7 7 8 7 7 8 7 8 8 8 8 7
8 8 8 8 8 9 9 10 9 8 9 9 9 10 10 9 8 8 9 9 9 10 10 10 9 9 9 9 10 9 10 9 10 6 8 7 4 4 7 8 10 11 14 14 13 15 17 17 16 7 9 9 9 8 10 9 10 10 11 12 12 12 12 11 10 10 10 10 9 8 6 7 9 9 7 8 9 8 9 10 9 8 9 7 7
8 9 8 7 7 7 7 7 7 8 8 7 7 9 5 4 6 5 7 6 5 3 3 2 3 4 5 5 6 7 7 8 3 7 7 1 2 8 6 7 9 11 15 20 13 14 16 15 11 10 10 12 13 11 10 10 10 12 12 11 13 14 12 13 13 12 11 11 11 10 10 8 8 9 8 9 9 10 8 9 9 8 7 5 9
8 8 7 7 7 7 6 6 4 4 9 8 8 7 10 14 11 6 5 9 14 14 11 6 5 4 4 4 5 4 6 8 16 19 18 19 14 6 10 14 16 14 16 18 17 15 16 18 16 15 14 13 16 18 19 18 18 17 16 19 15 12 12 13 13 12 12 12 10 9 9 8 9 9 9 9 8 8 9 8 8 5 6 8 11
8 8 7 7 7 6 6 6 5 6 7 5 5 8 7 8 12 15 12 9 11 13 13 12 11 8 4 2 3 3 1 5 8 10 13 13 15 16 14 13 17 20 20 15 9 13 17 17 18 18 18 19 20 21 20 18 18 17 17 17 16 15 14 13 13 13 13 13 12 12 13 12 11 10 10 9 10 10 10 9 7 7 7 10 11
7 8 8 7 6 6 6 6 6 5 4 4 3 4 6 7 7 6 9 11 10 11 12 11 11 10 7 5 3 5 8 13 13 15 16 17 18 19 18 16 16 16 18 13 12 16 18 20 19 20 20 20 21 20 18 17 14 13 13 14 15 14 14 14 14 13 13 13 13 13 13 12 11 11 10 9 9 9 9 9 8 9 8 11 10
9 8 8 8 8 8 8 7 7 7 6 5 5 5 6 6 6 6 5 4 10 12 11 11 11 9 8 6 4 1 6 11 14 14 13 13 15 16 17 19 18 14 10 11 14 16 19 19 20 20 19 18 17 16 14 12 12 14 15 16 16 16 15 14 14 12 11 11 10 9 10 10 10 11 10 9 9 9 9 9 8 9 10 9 8
10 8 8 8 8 7 7 7 7 7 6 6 5 5 5 4 4 4 5 5 3 3 4 5 7 8 6 6 5 5 8 10 12 13 14 15 15 14 12 14 16 12 12 11 12 16 17 19 20 21 21 19 17 16 14 15 15 15 15 15 15 15 15 14 13 12 10 10 10 10 10 9 9 8 10 8 7 7 8 9 9 9 11 11 10
10 11 11 8 8 7 7 7 7 6 6 5 5 5 5 4 3 3 2 2 2 2 3 3 3 3 1 1 0 4 9 11 12 13 14 15 13 10 9 9 10 4 6 10 11 14 15 17 19 18 17 16 15 15 16 17 18 16 14 13 12 12 13 14 13 12 12 12 11 11 11 12 11 9 7 9 9 8 8 9 10 10 10 10 11
9 8 9 9 8 7 7 7 6 6 5 5 4 4 3 2 3 3 2 2 1 1 0 2 2 7 9 3 4 8 11 13 15 16 15 14 10 4 7 10 13 12 11 9 10 13 12 15 16 16 14 13 12 13 14 16 17 17 16 16 16 15 15 15 14 13 13 13 12 12 11 10 10 10 8 8 11 11 10 10 11 11 10 10 7
8 7 7 7 7 7 7 7 6 5 4 4 3 3 3 3 3 2 2 3 3 3 3 2 4 2 6 3 5 10 12 15 16 16 13 12 9 4 5 7 10 12 12 12 11 10 13 13 13 14 12 10 10 11 14 14 13 12 13 15 15 15 13 12 13 12 13 12 11 12 12 11 11 10 11 10 9 10 10 10 11 8 8 6 6
8 7 6 5 6 6 6 5 4 5 3 5 3 2 3 3 3 3 2 2 2 3 3 4 4 5 6 6 9 8 11 12 12 9 6 7 10 9 11 9 8 9 12 10 10 10 9 10 8 2 3 3 4 10 14 11 10 10 12 13 15 15 17 15 16 13 11 11 11 11 10 10 9 10 10 10 10 10 10 9 9 7 8 8 8
7 7 7 11 8 5 5 5 5 4 5 4 5 4 4 4 4 4 4 4 4 5 5 4 5 5 6 7 8 9 11 8 9 10 10 9 9 11 11 12 11 11 11 10 10 8 8 6 3 2 3 6 12 8 8 11 12 13 15 16 15 14 15 12 12 10 10 10 9 10 10 10 9 9 9 8 8 9 9 9 9 9 11 12 12
8 7 3 5 4 4 5 5 5 5 5 4 4 5 5 5 5 4 4 5 4 4 4 4 4 5 5 6 7 7 8 9 10 10 10 9 9 10 10 10 11 11 11 10 8 7 7 7 7 7 8 9 9 4 4 10 10 7 7 11 13 14 14 14 14 13 11 11 10 10 10 9 8 8 8 8 10 9 8 8 9 8 10 10 10
7 6 5 2 0 3 5 5 6 5 5 5 6 6 6 5 5 5 5 5 5 4 4 5 5 5 5 4 3 6 6 7 7 9 9 9 9 9 9 8 10 11 11 11 10 9 6 6 10 10 10 9 9 10 9 9 8 8 10 10 11 11 11 10 10 10 9 9 9 9 8 8 9 10 10 8 7 9 10 9 11 13 5 6 8
5 5 4 4 2 3 5 5 5 4 4 6 6 5 4 4 4 5 5 5 5 5 4 5 5 4 5 3 4 10 7 7 6 7 8 9 9 8 8 8 8 9 9 10 9 8 9 9 8 5 6 8 9 9 10 7 6 5 7 8 10 10 10 10 9 9 9 9 8 8 8 7 8 8 8 6 6 7 8 10 6 4 5 6 6
6 6 6 6 7 7 6 6 5 5 4 5 4 2 1 2 3 2 2 3 4 5 6 7 5 4 4 4 5 10 7 6 6 7 7 7 8 9 8 7 7 7 8 8 6 6 7 8 7 8 7 7 7 7 8 8 6 6 6 8 8 9 9 9 8 8 8 8 8 8 7 6 7 7 7 8 9 7 5 6 6 6 6 7 8
4 6 7 6 6 6 6 5 5 5 5 4 4 7 7 6 6 6 6 7 7 5 5 6 6 6 6 4 4 6 7 6 5 6 7 7 7 7 8 7 6 5 6 6 6 6 6 8 8 7 8 8 8 8 7 7 8 8 8 9 9 10 10 9 7 8 8 8 8 7 7 6 6 6 7 6 6 7 6 6 6 7 8 8 9
7 8 8 8 6 5 5 5 5 5 5 5 6 5 6 6 6 7 7 7 8 8 7 6 5 6 6 6 6 7 7 7 5 4 5 6 7 7 6 5 6 5 3 4 5 5 6 7 8 8 8 8 8 7 7 7 7 8 8 8 9 9 8 8 8 7 7 8 7 6 6 6 6 6 7 7 5 6 6 7 8 8 8 8 9
9 8 8 8 7 7 7 7 7 7 8 8 8 8 8 8 8 8 8 8 8 7 8 8 7 6 6 6 6 7 8 8 7 5 5 5 6 6 5 4 3 4 5 2 4 5 6 6 6 6 8 8 8 8 8 8 7 7 8 8 9 10 9 9 8 8 8 8 8 6 4 5 6 6 7 7 6 6 6 7 8 8 8 9 8
8 7 8 8 9 9 9 9 10 10 10 10 10 10 10 10 10 10 9 10 9 8 9 9 9 7 7 7 7 7 7 8 8 7 5 5 5 5 4 5 4 3 3 4 5 5 7 8 7 7 8 9 9 9 9 8 8 8 8 8 9 9 9 9 9 7 7 7 7 8 7 5 5 5 7 6 6 6 6 7 8 8 8 7 7
8 9 9 10 10 10 11 11 11 12 11 11 11 11 10 10 10 9 9 9 9 9 8 8 8 9 9 8 8 8 8 8 8 7 5 5 4 4 4 3 3 3 4 5 6 7 8 9 9 7 7 8 8 10 9 9 8 8 8 8 7 7 8 7 6 6 4 6 6 6 6 5 4 4 5 5 6 7 7 7 7 7 7 7 7
11 11 10 11 11 11 11 11 12 11 11 11 11 10 10 10 10 10 10 10 9 9 8 8 8 8 8 8 9 9 8 8 8 9 7 3 3 4 4 4 4 5 6 7 7 7 6 6 6 7 8 7 7 9 10 10 10 9 8 7 9 14 13 13 7 6 9 7 5 5 4 4 4 5 6 7 6 6 7 7 7 7 7 7 7
11 12 11 11 11 11 10 11 11 11 10 10 10 10 10 10 11 11 11 10 10 11 10 10 8 8 7 8 8 8 8 9 9 7 4 3 3 4 4 4 5 5 6 6 5 5 4 5 5 6 7 8 8 8 8 8 8 8 8 8 13 15 15 15 14 13 9 5 5 6 6 6 6 6 6 7 6 6 7 6 6 6 7 7 7
11 11 12 12 11 11 10 10 11 12 12 11 11 10 10 10 10 10 10 11 10 10 10 11 11 12 12 11 10 9 8 9 9 10 9 6 4 3 3 4 5 7 7 5 5 6 6 5 4 4 5 6 6 7 7 7 8 8 10 14 16 15 15 12 8 8 7 6 7 6 6 7 7 7 6 6 5 6 6 6 7 7 7 7 7
Wind_Direction
185 187 188 192 191 191 193 195 197 198 199 199 201 204 206 208 209 210 205 209 206 205 205 207 205 203 203 202 202 198 198 199 197 195 197 199 203 204 201 194 201 201 205 210 212 215 215 217 220 213 211 213 215 216 215 201 201 207 207 201 204 202 202 211 221 235 218 222 234 219 200 187 190 214 224 212 160 185 209 232 200 208 220 238 213
188 186 188 190 193 192 193 195 196 196 197 198 201 203 204 204 206 206 208 206 206 207 204 206 206 204 206 201 201 200 197 198 199 197 197 198 201 201 206 196 198 204 202 208 212 216 211 211 217 215 208 214 212 215 218 209 200 207 203 205 205 199 201 203 217 225 230 210 223 239 261 191 220 182 217 216 215 193 207 214 224 225 235 232 253
189 185 187 188 192 192 193 193 193 196 198 198 202 203 203 203 201 204 207 206 204 207 205 205 203 205 206 203 199 201 197 198 200 200 199 200 200 203 204 202 200 204 205 209 213 212 213 210 213 213 208 210 212 215 216 216 208 207 207 206 206 206 196 204 207 219 229 226 208 216 225 212 218 206 206 218 223 214 209 215 221 220 221 236 236
188 187 187 188 189 190 193 194 195 196 200 202 204 205 205 203 202 203 205 208 205 203 207 204 202 201 204 203 200 200 199 198 200 201 202 202 202 204 205 205 204 204 206 207 209 210 212 210 210 210 209 208 209 211 214 215 214 208 210 207 207 208 202 195 211 220 218 233 219 228 201 217 211 234 212 212 216 214 220 215 224 230 225 219 226
190 189 189 190 190 191 193 194 196 198 201 202 205 206 208 208 204 205 205 209 210 203 203 204 202 199 201 201 201 200 201 200 200 203 203 204 204 205 206 206 206 204 204 205 207 208 210 211 208 209 208 208 207 210 211 212 212 211 209 207 206 207 206 200 201 210 220 223 228 211 228 210 214 215 220 206 210 219 212 227 222 220 228 237 233
191 189 191 191 191 192 193 195 198 199 202 205 206 207 209 209 208 204 206 208 208 209 202 202 202 200 200 200 200 200 200 202 202 203 204 203 205 207 207 208 207 206 205 206 207 208 210 209 208 208 210 208 207 206 209 210 208 211 209 207 206 204 207 205 201 202 212 222 223 222 207 232 212 220 213 214 209 209 216 218 231 233 226 228 232
190 190 191 192 192 193 193 195 196 199 200 204 206 206 209 210 210 208 204 207 206 208 206 202 201 200 199 200 200 200 200 201 202 202 206 205 204 206 208 209 209 207 208 209 210 209 208 208 208 209 210 209 208 206 204 207 208 209 207 207 205 205 203 207 203 203 205 211 216 225 221 212 228 222 218 214 217 218 211 212 222 220 226 230 228
189 189 191 193 194 194 194 194 195 197 199 199 203 206 207 209 210 209 205 206 208 208 209 203 200 200 199 200 200 199 199 201 202 203 204 206 204 205 210 211 210 210 209 210 212 211 210 209 209 209 210 209 208 207 203 203 204 208 205 205 205 204 205 203 206 205 206 209 213 212 220 223 208 230 222 208 219 221 224 217 218 218 221 220 230
189 191 192 194 194 192 192 194 196 196 197 197 201 204 206 207 208 208 208 208 208 209 209 207 201 200 200 199 200 200 201 202 201 200 202 204 206 206 208 212 212 212 212 212 213 213 213 213 213 212 206 205 203 204 205 198 199 203 203 200 202 203 206 206 204 206 207 211 211 213 217 219 224 212 221 211 211 217 209 219 221 222 220 221 220
190 192 194 194 191 188 189 192 194 195 195 197 198 199 203 204 206 207 208 209 208 208 209 209 208 202 200 200 200 201 203 204 198 192 194 200 203 207 207 211 214 213 213 214 215 215 216 217 215 211 201 195 194 197 203 197 196 204 201 198 199 202 204 206 205 206 209 210 213 210 215 220 218 216 216 215 211 215 215 210 222 223 222 227 219
192 195 197 193 188 187 188 192 193 194 195 195 195 197 200 201 203 203 206 208 208 204 208 210 213 209 203 202 202 203 204 206 188 187 191 196 201 205 206 209 212 214 215 214 216 217 218 218 222 203 199 190 191 192 199 200 193 200 201 199 198 200 199 204 209 208 208 214 214 216 217 218 219 222 222 223 214 212 215 212 217 219 221 218 224
195 196 195 189 188 189 189 190 192 195 194 196 195 194 197 200 203 201 205 206 205 209 209 210 212 213 207 206 206 207 209 200 183 187 190 194 198 204 208 210 210 213 216 216 217 218 218 218 217 217 204 195 191 191 197 196 193 197 198 194 194 203 210 206 206 209 211 213 216 218 219 219 219 220 228 227 216 212 214 218 209 221 218 219 224
191 192 194 191 191 188 187 188 191 192 194 194 195 194 195 200 202 202 204 203 203 206 209 208 211 214 213 209 211 210 214 194 183 186 191 193 197 203 211 210 211 213 214 216 217 215 215 217 217 214 214 189 189 195 194 195 194 195 196 194 197 200 209 223 226 222 212 216 219 219 220 220 218 218 221 226 220 223 208 216 212 213 219 227 228
192 190 191 193 192 189 188 189 189 190 189 188 191 195 197 202 202 203 204 202 206 207 208 209 209 211 215 216 214 217 218 192 184 186 191 194 197 201 213 213 215 215 214 213 214 215 212 213 213 211 212 187 190 198 197 192 191 194 196 198 203 205 210 214 221 231 244 229 218 222 221 222 227 222 214 211 223 224 213 213 211 215 222 228 233
193 188 191 193 191 190 189 189 190 187 187 187 189 195 198 201 202 204 204 205 205 206 207 209 210 211 214 218 220 222 225 189 182 186 191 194 198 201 212 218 219 220 218 216 214 213 213 212 212 211 207 204 191 195 198 193 189 193 198 205 210 212 211 213 215 219 220 227 228 224 224 226 230 226 226 211 218 226 215 215 220 225 224 213 190
198 191 193 193 192 190 188 189 189 188 189 189 192 197 199 199 199 200 206 208 209 208 210 213 214 214 216 218 222 225 227 187 183 186 190 193 193 199 211 219 224 225 222 221 216 215 214 211 211 210 205 207 192 188 195 192 190 190 198 204 209 214 217 214 212 213 219 219 221 225 225 226 230 225 217 218 208 212 212 218 218 208 198 193 212
200 195 193 192 190 188 188 188 189 190 191 192 196 199 199 198 200 198 205 210 210 210 211 212 215 217 217 218 222 225 230 190 184 187 189 190 187 202 208 216 222 225 228 225 227 224 218 212 212 209 207 208 191 184 190 189 194 190 194 200 206 211 218 213 200 206 213 221 222 225 237 261 321 225 193 185 184 199 203 211 207 203 206 219 226
198 195 193 191 188 187 188 189 190 191 192 196 198 200 198 198 200 197 202 207 212 214 212 213 215 217 219 221 219 223 229 194 183 187 190 187 188 197 203 211 219 221 225 225 223 228 227 219 214 214 213 212 189 181 186 187 198 193 191 194 199 208 213 213 200 196 201 208 216 220 224 223 189 178 168 161 164 179 201 212 210 213 220 221 233
196 194 192 188 188 188 189 190 192 192 195 198 198 198 199 199 200 199 205 209 214 216 216 217 217 217 221 223 218 221 229 212 182 187 191 189 192 199 201 209 216 220 221 223 224 227 228 219 211 213 215 214 184 182 185 188 200 197 194 196 200 205 206 202 209 189 184 196 209 206 197 178 178 186 180 171 166 183 203 214 218 220 223 223 227
194 192 188 187 186 188 189 189 192 195 197 196 197 199 197 198 199 201 205 208 212 215 216 222 222 222 223 223 222 221 228 226 181 191 190 191 193 196 204 206 217 218 218 221 225 224 225 228 210 209 210 211 182 186 187 193 201 203 201 202 204 208 201 202 204 205 176 189 200 200 206 200 196 198 178 180 184 196 205 211 219 226 224 226 221
190 190 186 187 188 188 189 190 191 194 196 195 196 198 198 201 201 202 206 207 211 214 218 222 226 227 228 226 229 226 227 233 192 189 193 192 194 198 207 213 220 226 232 234 232 231 225 224 230 201 202 200 185 191 190 195 201 207 209 211 208 199 186 203 197 192 168 183 189 190 196 201 208 212 206 186 196 200 206 212 216 218 215 219 221
187 186 186 188 189 189 191 189 190 194 194 192 195 199 200 200 201 202 206 206 210 214 217 225 230 233 232 233 239 243 233 221 214 186 192 191 192 202 208 216 214 223 233 236 236 239 236 229 230 199 193 198 193 189 193 196 200 206 213 212 197 178 189 198 195 177 168 177 182 187 189 199 211 210 212 197 197 204 207 206 211 215 208 216 222
181 183 182 186 188 190 190 187 186 190 191 192 194 195 195 199 200 200 202 207 210 212 216 225 235 241 245 246 246 241 240 232 214 182 189 189 194 201 211 215 211 212 231 236 235 238 236 240 238 202 188 196 192 189 195 199 198 207 210 203 194 181 181 192 200 187 173 176 180 186 185 193 204 210 210 207 198 202 207 212 201 207 207 214 227
176 177 180 185 187 190 189 187 186 186 186 187 190 191 194 196 198 199 200 206 211 213 216 221 231 239 243 246 245 250 247 252 211 175 180 191 194 202 210 220 216 218 223 239 241 241 242 240 239 199 185 193 197 197 198 196 201 205 206 198 189 178 183 190 192 180 170 171 179 182 189 197 199 204 205 215 213 182 178 201 206 203 207 217 216
165 176 178 183 183 186 185 183 183 184 181 185 186 190 192 189 194 196 205 216 221 229 228 227 229 237 244 246 251 254 257 250 255 183 181 187 196 200 209 214 224 227 230 234 237 245 245 241 243 214 187 191 197 199 200 200 204 206 206 199 187 185 190 190 179 178 179 178 180 175 180 187 191 189 192 207 192 141 163 194 202 202 202 202 213
167 172 175 177 179 179 180 180 180 178 176 183 189 196 198 200 202 199 208 216 224 228 231 230 230 233 237 245 247 245 238 256 259 240 171 191 196 202 205 210 216 220 224 230 229 233 242 254 259 220 189 192 190 188 186 199 207 205 201 200 198 197 191 188 179 182 184 176 174 177 179 180 183 183 190 154 132 154 167 197 200 183 192 189 197
167 170 169 171 170 174 174 174 171 179 182 186 188 194 195 204 202 205 205 210 215 217 224 227 235 236 244 249 253 259 255 258 256 254 188 175 200 207 215 221 223 225 227 238 237 236 235 235 239 210 199 191 192 192 196 198 196 204 200 201 208 204 197 191 184 178 174 171 172 176 177 170 169 178 152 153 155 154 166 200 204 191 202 189 175
167 167 165 164 165 169 173 166 170 169 178 185 188 193 196 200 203 202 211 215 217 220 221 227 230 235 240 241 245 239 247 248 257 311 9 14 336 233 210 216 219 212 227 233 233 230 232 235 230 198 194 184 203 198 199 181 182 182 191 200 207 209 202 184 168 169 169 165 152 139 136 175 181 168 156 164 170 170 172 197 204 194 202 180 167
153 150 151 147 146 153 156 158 172 173 170 172 67 35 6 202 194 159 43 28 26 9 319 283 271 314 310 326 319 311 298 286 356 6 327 244 248 305 288 228 228 232 230 230 229 228 233 235 229 212 196 198 194 197 191 180 183 191 187 189 200 198 184 185 183 174 165 156 160 164 175 181 166 159 161 167 172 178 170 185 205 211 186 186 189
122 122 122 122 133 141 141 154 165 195 170 131 94 66 40 47 42 61 73 55 58 53 55 58 38 13 1 1 16 354 323 338 346 344 341 330 325 269 255 271 271 258 249 236 229 236 230 229 222 215 211 198 204 202 200 192 187 189 192 194 196 196 188 188 179 165 156 155 151 157 172 168 163 171 173 180 168 180 172 182 197 220 163 188 201
122 119 122 120 100 96 119 136 104 72 69 99 118 128 105 55 45 65 82 92 89 83 87 93 76 54 46 10 31 105 358 337 335 323 317 310 304 303 297 285 280 281 280 272 232 227 236 233 226 218 214 209 208 210 202 196 189 186 186 187 189 190 187 185 177 164 161 161 168 174 171 170 168 167 172 181 172 175 164 174 175 201 195 200 204
111 100 108 108 117 116 110 116 123 91 98 98 114 153 112 106 90 65 94 108 109 105 104 101 102 97 81 76 17 346 358 348 337 332 327 323 318 313 306 292 276 269 272 279 259 243 232 232 230 225 219 214 212 208 201 194 184 178 180 178 188 188 182 183 176 171 167 170 170 170 164 161 157 160 165 181 178 171 156 167 174 193 203 206 204
107 108 113 99 80 85 99 97 102 109 114 118 126 139 137 135 120 118 80 91 108 116 122 122 118 117 116 118 131 167 285 302 310 309 304 299 300 297 296 291 284 274 265 255 238 244 237 230 232 233 227 223 215 209 200 189 181 187 183 185 183 183 180 174 165 164 163 161 162 164 158 153 151 154 166 173 178 173 156 163 185 193 205 210 203
98 107 107 97 94 95 93 91 88 84 77 84 86 83 74 85 107 121 149 144 132 69 71 100 122 128 151 153 175 226 248 267 277 286 292 295 294 297 301 297 289 259 219 240 241 246 249 247 238 230 225 218 208 199 187 181 185 191 190 184 182 174 168 161 161 154 151 149 149 150 151 150 136 151 168 158 147 160 170 164 191 196 201 209 205
88 73 80 92 98 93 92 90 87 89 91 92 98 101 97 93 99 89 58 53 66 117 155 194 205 211 71 216 205 297 293 282 278 275 280 280 285 313 318 299 305 289 206 220 240 250 253 251 250 248 243 231 211 189 186 187 187 181 176 171 165 164 158 160 161 160 157 154 156 156 149 155 157 156 161 151 160 170 191 174 187 202 197 203 211
91 89 83 78 79 77 78 74 79 87 83 81 66 67 80 109 133 125 121 85 37 41 23 40 344 190 203 236 239 303 312 307 302 299 292 286 282 33 327 317 320 311 298 280 256 251 250 257 261 261 253 233 207 200 198 190 182 177 171 165 159 161 163 161 159 158 156 156 161 159 156 151 153 152 158 152 167 180 198 194 193 191 201 208 208
91 84 80 79 78 81 73 75 72 65 63 72 84 105 96 77 47 42 53 64 35 355 337 28 351 91 178 148 22 341 322 312 301 296 289 282 271 223 272 297 304 303 297 291 283 271 265 265 259 262 254 226 209 199 187 181 170 159 159 159 156 155 158 156 152 152 152 156 154 152 154 158 158 154 159 172 175 188 198 194 208 190 185 187 186
64 66 62 62 101 91 102 100 120 203 160 121 100 76 78 81 76 54 33 48 39 347 5 16 8 350 360 359 351 353 323 292 292 307 328 355 352 350 345 336 305 300 310 296 277 276 270 262 252 215 51 352 262 187 162 147 142 145 153 158 157 156 146 145 146 145 147 148 150 149 153 159 158 156 160 175 183 187 200 199 200 174 173 192 194
83 53 38 34 44 82 88 89 80 70 71 71 75 72 63 40 38 32 27 24 19 15 6 3 9 2 5 358 346 339 321 342 347 343 343 355 356 353 351 345 339 334 336 332 322 288 268 258 220 132 145 128 128 134 145 149 156 161 160 157 151 141 138 140 138 135 141 149 149 152 154 159 155 157 168 170 187 179 191 208 207 187 181 196 202
113 120 114 223 141 102 94 81 74 81 61 66 72 58 55 37 29 22 16 11 25 8 360 359 360 11 29 6 354 339 335 342 343 337 335 344 352 359 354 354 349 351 353 5 19 47 55 44 42 50 47 41 31 23 135 144 140 136 133 126 125 131 138 147 150 154 156 152 154 152 157 154 149 159 172 183 189 181 190 204 208 217 203 182 179
107 101 109 120 259 127 103 101 76 47 64 49 38 50 50 38 30 6 17 5 5 360 350 353 353 6 69 64 306 293 292 321 345 331 334 335 346 358 352 357 358 356 354 0 360 356 12 76 100 102 100 96 91 86 62 54 73 104 119 120 124 130 135 133 131 132 132 137 145 153 156 152 150 160 177 194 168 182 195 199 207 214 196 125 162
97 100 101 107 173 75 69 49 62 67 31 57 60 41 29 23 32 25 7 355 355 339 341 339 343 351 123 136 285 287 293 305 336 334 331 332 337 345 352 356 358 1 359 3 7 22 37 14 360 33 75 88 94 97 102 105 101 108 111 116 122 122 124 128 129 130 136 141 144 147 144 135 142 152 161 177 196 215 204 193 196 156 181 171 169
83 80 73 71 50 37 39 50 38 48 59 31 39 88 94 20 29 5 353 5 345 345 330 332 351 359 344 173 260 276 288 327 345 336 340 332 332 332 341 358 357 359 357 8 19 34 48 44 34 26 32 44 64 82 97 101 97 98 102 105 105 103 102 101 105 116 126 133 139 134 130 135 145 162 170 188 198 188 185 171 171 173 181 183 195
97 105 100 75 62 71 48 28 37 31 24 46 23 5 0 345 349 348 338 328 329 334 343 337 344 348 345 338 306 304 335 341 346 329 331 330 335 335 342 348 360 7 10 8 24 37 57 62 58 49 51 52 48 60 66 79 91 101 108 110 106 105 108 107 110 117 122 125 131 141 145 140 139 157 165 160 172 178 165 163 172 184 189 195 197
39 29 33 51 45 37 58 53 39 43 30 24 32 35 26 19 18 2 352 348 345 340 334 335 339 335 334 335 329 329 332 335 337 326 329 332 326 332 341 355 3 13 36 45 41 46 63 68 69 71 62 61 60 56 60 74 87 101 108 110 115 112 109 110 108 102 96 98 101 113 123 128 144 160 159 164 165 167 170 171 184 188 192 197 197
42 45 50 54 51 40 41 40 27 35 33 31 28 25 22 17 13 10 5 0 357 349 341 337 334 342 348 338 338 333 332 329 334 346 337 331 333 332 333 341 10 19 7 47 93 80 81 83 64 61 84 88 80 77 68 62 62 64 76 81 87 89 91 92 95 90 89 95 107 108 115 150 165 164 153 161 168 171 187 180 186 194 193 198 198
47 54 56 54 54 51 43 40 38 30 34 32 29 26 21 17 16 9 9 5 0 356 352 354 356 355 349 349 342 333 330 327 329 328 339 344 347 348 347 347 0 78 74 49 71 99 108 104 97 87 88 90 93 88 91 87 77 75 74 80 87 89 90 104 108 116 126 139 146 143 156 166 164 153 146 162 176 181 191 185 189 186 193 195 199
61 59 55 53 52 47 40 34 34 30 30 31 30 24 20 16 15 10 7 5 8 7 3 357 353 356 352 346 338 334 337 334 328 327 331 344 7 11 11 25 40 55 81 90 95 95 98 99 98 93 82 79 90 99 98 98 90 78 70 67 76 98 106 105 107 117 127 136 138 139 148 151 151 141 142 161 183 181 187 182 182 187 193 196 202
45 47 51 51 52 50 48 44 41 38 34 30 28 24 21 19 18 14 7 3 8 11 8 5 359 355 354 348 344 342 347 347 350 338 329 12 36 31 39 49 70 69 70 72 63 58 50 50 71 99 102 103 101 104 108 108 110 111 108 114 120 123 121 117 120 106 101 102 104 121 122 125 136 138 152 176 186 177 183 185 183 187 186 192 206
48 48 48 50 54 55 58 55 52 47 42 38 34 29 25 23 24 19 14 11 11 9 4 3 3 6 358 350 342 340 347 355 346 332 339 326 25 58 72 94 99 93 88 89 88 88 92 96 91 88 93 94 96 99 103 108 106 108 106 101 104 99 98 101 103 108 115 115 126 142 150 152 151 150 157 175 181 173 180 183 182 186 195 199 202
49 50 50 48 47 48 48 52 53 51 44 39 39 36 32 29 27 23 18 17 15 13 12 11 8 6 4 3 5 5 6 2 2 355 350 1 21 40 84 108 117 116 120 127 126 125 128 131 119 106 102 110 116 118 121 119 119 109 105 109 107 111 110 104 95 73 96 133 144 145 153 147 147 149 159 169 179 176 182 187 192 198 201 201 204